Location: Unspecified
(48.5670°N, 0.0000°E)
Time: 13:10:18
(UTC+00:00)

Transit 4A - Pass Details

Date: 31 August 2019
Orbit: 865 x 979 km, 66.8° (Epoch: 22 September)

Event Time Altitude Azimuth Distance (km) Brightness Sun altitude
Rises 22:55:10 0° 324° (NW) 3,653 12.0 -31.2°
Reaches altitude 10° 22:58:06 10° 335° (NNW) 2,688 11.2 -31.3°
Maximum altitude 23:03:33 30° 36° (NE) 1,609 9.4 -31.6°
Enters shadow 23:05:20 26° 65° (ENE) 1,744 9.3 -31.7°
